R/V Oceanus Calliope CSV data file - OC468-I  (Time stamps are GMT)
Date, Time_GMT, Depth12, Depth35, WXTP_Ta, WXTS_Ta, AT, WXTP_Pa, WXTS_Pa, BPR, Dec_Lat, Dec_Lon, SSCND, SSTMP, IMET_PRC, PRC, COG, SOG, WXTP_Rc, WXTS_Rc, WXTP_Ri, WXTS_Ri, WXTP_Ua, WXTS_Ua, WXTP_Dm, WXTS_Dm, WXTP_Sm, WXTS_Sm, HRH, SBE45C, SBE45S, SBE45T, SBE45V, SBE48, Salinity, FLR, HDT, SPD, SWR, WXTP_TD, WXTS_TD, Wnd_TD, WXTP_TS, WXTS_TS, Wnd_TS, HdChkSum=6C
2010/08/17, 00:00:21, 56.69, 0.00, 27.5, 27.20, 27.50, 1013.9, 1013.9, 1013.92, 24.70460, -83.61970, 65.4700, 34.8497, 0.00, 54.39, 326.3, 11.60, 54.4, 55.24, 0.0, 0.0, 71.8, 74.5, 266, 264, 0.8, 0.9, 71.80, 63.54000, 35.8695, 33.5477, 1553.456, 30.55, 36.1762, 98.72, 329.6, 12.44, 5.06, 154.9, 155.7, 154.9, 6.084, 6.131, 6.0844, 6C
2010/08/17, 00:01:20, 57.07, 0.00, 27.5, 27.20, 27.50, 1013.9, 1013.9, 1013.92, 24.70708, -83.62155, 65.4717, 34.8489, 0.00, 54.39, 326.9, 11.60, 54.4, 55.24, 0.0, 0.0, 71.8, 73.7, 304, 306, 1.5, 1.5, 71.80, 63.52000, 35.8685, 33.5312, 1553.424, 30.56, 36.1778, 97.20, 330.2, 12.32, 4.48, 159.8, 159.5, 159.8, 5.252, 5.205, 5.2523, 6C
2010/08/17, 00:02:20, 58.25, 0.00, 27.5, 27.20, 27.50, 1013.8, 1013.9, 1013.82, 24.70985, -83.62352, 65.4672, 34.8479, 0.00, 54.39, 327.6, 11.70, 54.4, 55.24, 0.0, 0.0, 72.8, 74.5, 309, 312, 1.5, 1.4, 72.80, 63.50000, 35.8678, 33.5146, 1553.393, 30.58, 36.1757, 97.84, 329.8, 12.28, 3.71, 159.2, 157.8, 159.2, 5.124, 5.113, 5.1241, 6C
2010/08/17, 00:03:20, 58.91, 0.00, 27.5, 27.30, 27.50, 1013.9, 1013.9, 1013.92, 24.71255, -83.62545, 65.4688, 34.8477, 0.00, 54.39, 326.7, 11.60, 54.4, 55.24, 0.0, 0.0, 73.4, 75.5, 313, 318, 1.7, 1.2, 73.40, 63.48000, 35.8678, 33.4966, 1553.359, 30.59, 36.1768, 97.20, 330.3, 12.28, 3.23, 160.0, 154.6, 160.0, 4.882, 5.087, 4.8819, 6C
2010/08/17, 00:04:20, 59.22, 0.00, 27.6, 27.30, 27.60, 1013.9, 1013.9, 1013.92, 24.71527, -83.62742, 65.4705, 34.8473, 0.00, 54.39, 326.7, 11.60, 54.4, 55.24, 0.0, 0.0, 74.0, 76.5, 322, 328, 2.1, 1.7, 74.00, 63.46000, 35.8668, 33.4803, 1553.328, 30.59, 36.1782, 98.40, 330.2, 12.13, 2.90, 162.0, 156.6, 162.0, 4.406, 4.550, 4.4063, 6C
2010/08/17, 00:05:20, 59.22, 0.00, 27.6, 27.30, 27.60, 1013.9, 1013.9, 1013.92, 24.71798, -83.62933, 65.4656, 34.8456, 0.00, 54.39, 326.9, 11.50, 54.4, 55.24, 0.0, 0.0, 73.6, 76.0, 291, 292, 1.2, 1.2, 73.60, 63.44000, 35.8661, 33.4628, 1553.295, 30.58, 36.1763, 97.84, 330.1, 12.18, 2.75, 158.5, 158.5, 158.5, 5.536, 5.515, 5.5356, 6C
2010/08/17, 00:06:21, 59.32, 0.00, 27.6, 27.30, 27.60, 1013.9, 1013.9, 1013.92, 24.72093, -83.63130, 65.4674, 34.8458, 0.00, 54.39, 327.2, 11.60, 54.4, 55.24, 0.0, 0.0, 72.6, 74.8, 288, 288, 0.9, 0.8, 72.60, 63.42000, 35.8653, 33.4459, 1553.263, 30.58, 36.1773, 98.72, 330.4, 12.21, 2.35, 155.2, 154.2, 155.2, 5.707, 5.730, 5.7072, 6C
2010/08/17, 00:07:21, 59.17, 0.00, 27.6, 27.30, 27.60, 1013.9, 1013.9, 1013.92, 24.72352, -83.63335, 65.4680, 34.8461, 0.00, 54.39, 327.0, 11.50, 54.4, 55.24, 0.0, 0.0, 73.3, 75.1, 353, 354, 1.1, 1.2, 73.30, 63.40000, 35.8639, 33.4294, 1553.231, 30.58, 36.1774, 96.00, 330.4, 12.30, 2.06, 147.2, 147.1, 147.2, 4.870, 4.769, 4.8702, 6C
2010/08/17, 00:08:21, 60.04, 0.00, 27.6, 27.40, 27.60, 1013.9, 1013.9, 1013.92, 24.72620, -83.63532, 65.4662, 34.8442, 0.00, 54.39, 326.3, 11.60, 54.4, 55.24, 0.0, 0.0, 73.0, 75.8, 320, 295, 0.8, 0.6, 73.00, 63.38000, 35.8639, 33.4112, 1553.197, 30.60, 36.1776, 96.88, 329.9, 12.26, 1.69, 152.3, 152.5, 152.3, 5.298, 5.658, 5.2982, 6C
2010/08/17, 00:09:21, 59.89, 0.00, 27.6, 27.40, 27.60, 1013.9, 1013.9, 1013.92, 24.72895, -83.63727, 65.4677, 34.8438, 0.00, 54.39, 326.5, 11.60, 54.4, 55.24, 0.0, 0.0, 72.2, 74.3, 315, 324, 0.8, 0.7, 72.20, 63.36000, 35.8630, 33.3946, 1553.166, 30.61, 36.1789, 96.56, 329.2, 12.28, 1.01, 152.4, 150.8, 152.4, 5.391, 5.388, 5.3914, 6C
2010/08/17, 00:10:20, 60.44, 0.00, 27.7, 27.40, 27.70, 1013.9, 1013.9, 1013.92, 24.73147, -83.63908, 65.4626, 34.8435, 0.00, 54.39, 326.4, 11.60, 54.4, 55.24, 0.0, 0.0, 73.6, 75.9, 266, 277, 0.7, 0.6, 73.60, 63.34000, 35.8629, 33.3765, 1553.132, 30.61, 36.1759, 97.52, 330.0, 12.29, 0.65, 153.1, 152.2, 153.1, 6.063, 5.937, 6.0632, 6C
2010/08/17, 00:11:21, 59.79, 0.00, 27.7, 27.40, 27.70, 1013.9, 1013.9, 1013.92, 24.73428, -83.64120, 65.4648, 34.8426, 0.00, 54.39, 326.0, 11.60, 54.4, 55.24, 0.0, 0.0, 72.5, 73.9, 335, 302, 1.0, 1.0, 72.50, 63.32000, 35.8622, 33.3588, 1553.099, 30.61, 36.1779, 95.68, 330.3, 12.32, 0.40, 150.5, 154.9, 150.5, 5.052, 5.451, 5.0520, 6C
2010/08/17, 00:12:20, 58.08, 0.00, 27.7, 27.40, 27.70, 1013.9, 1013.9, 1013.92, 24.73680, -83.64303, 65.4660, 34.8438, 0.00, 54.39, 325.4, 11.50, 54.4, 55.24, 0.0, 0.0, 70.7, 73.4, 270, 270, 1.6, 1.4, 70.70, 63.30000, 35.8624, 33.3414, 1553.067, 30.62, 36.1778, 98.08, 329.7, 12.44, 0.33, 161.3, 159.4, 161.3, 6.141, 6.103, 6.1411, 6C
2010/08/17, 00:13:20, 58.42, 0.00, 27.7, 27.40, 27.70, 1013.9, 1013.9, 1013.92, 24.73947, -83.64500, 65.4636, 34.8410, 0.00, 54.39, 326.9, 11.60, 54.4, 55.24, 0.0, 0.0, 72.7, 72.4, 305, 311, 1.4, 1.2, 72.70, 63.28000, 35.8608, 33.3248, 1553.034, 30.62, 36.1783, 98.72, 330.1, 12.42, 0.29, 158.6, 156.0, 158.6, 5.208, 5.194, 5.2081, 6C
2010/08/17, 00:14:21, 57.19, 0.00, 27.7, 27.40, 27.70, 1013.9, 1014.0, 1013.92, 24.74233, -83.64710, 65.4636, 34.8423, 0.00, 54.39, 326.5, 11.60, 54.4, 55.24, 0.0, 0.0, 70.4, 72.9, 254, 255, 0.9, 0.9, 70.40, 63.26000, 35.8602, 33.3068, 1553.000, 30.61, 36.1773, 98.40, 330.4, 12.33, 0.36, 153.6, 153.7, 153.6, 6.219, 6.204, 6.2188, 6C
2010/08/17, 00:15:21, 53.93, 0.00, 27.7, 27.40, 27.70, 1013.9, 1014.0, 1013.92, 24.74503, -83.64903, 65.4596, 34.8419, 0.00, 54.39, 327.2, 11.60, 54.4, 55.24, 0.0, 0.0, 69.5, 71.7, 269, 260, 0.6, 0.6, 69.50, 63.24000, 35.8596, 33.2895, 1552.967, 30.60, 36.1751, 101.76, 329.7, 12.33, 0.36, 151.9, 151.8, 151.9, 6.023, 6.116, 6.0227, 6C
2010/08/17, 00:16:20, 53.80, 0.00, 27.7, 27.50, 27.70, 1013.9, 1014.0, 1013.92, 24.74755, -83.65083, 65.4622, 34.8399, 0.00, 54.39, 327.0, 11.60, 54.4, 55.24, 0.0, 0.0, 72.1, 73.8, 343, 338, 1.1, 1.1, 72.10, 63.22000, 35.8581, 33.2734, 1552.936, 30.59, 36.1782, 97.20, 329.5, 12.47, 0.29, 150.6, 151.7, 150.6, 4.907, 4.941, 4.9074, 6C
2010/08/17, 00:17:21, 55.10, 0.00, 27.8, 27.50, 27.80, 1013.9, 1014.0, 1013.92, 24.75043, -83.65290, 65.4630, 34.8403, 0.00, 54.39, 327.4, 11.70, 54.4, 55.24, 0.0, 0.0, 71.3, 73.2, 353, 354, 0.8, 0.6, 71.30, 63.20000, 35.8585, 33.2545, 1552.901, 30.57, 36.1784, 97.84, 330.2, 12.42, 0.55, 147.4, 147.1, 147.4, 5.169, 5.368, 5.1694, 6C
2010/08/17, 00:18:21, 57.23, 0.00, 27.8, 27.50, 27.80, 1013.9, 1014.0, 1013.92, 24.75315, -83.65487, 65.4587, 34.8351, 0.00, 54.39, 327.1, 11.60, 54.4, 55.24, 0.0, 0.0, 72.4, 73.2, 342, 337, 1.4, 1.4, 72.40, 63.18000, 35.8579, 33.2375, 1552.869, 30.56, 36.1793, 97.52, 330.0, 12.56, 0.59, 151.4, 152.8, 151.4, 4.630, 4.677, 4.6295, 6C
2010/08/17, 00:19:21, 58.05, 0.00, 27.8, 27.60, 27.80, 1014.0, 1014.0, 1014.02, 24.75587, -83.65683, 65.4597, 34.8351, 0.00, 54.39, 326.1, 11.70, 54.4, 55.24, 0.0, 0.0, 71.4, 73.1, 313, 316, 1.5, 1.4, 71.40, 63.16000, 35.8567, 33.2210, 1552.837, 30.56, 36.1800, 96.56, 330.2, 12.38, 0.65, 158.4, 157.0, 158.4, 4.994, 4.992, 4.9940, 6C
2010/08/17, 00:20:21, 58.85, 0.00, 27.8, 27.60, 27.80, 1014.0, 1014.0, 1014.02, 24.75858, -83.65878, 65.4621, 34.8353, 0.00, 54.39, 326.5, 11.70, 54.4, 55.24, 0.0, 0.0, 69.7, 71.6, 315, 314, 1.5, 1.1, 69.70, 63.14000, 35.8562, 33.2031, 1552.803, 30.56, 36.1813, 98.72, 330.0, 12.60, 0.92, 157.7, 154.3, 157.7, 4.995, 5.261, 4.9954, 6C
2010/08/17, 00:21:20, 60.32, 0.00, 27.8, 27.60, 27.80, 1014.0, 1014.0, 1014.02, 24.76112, -83.66062, 65.4558, 34.8377, 0.00, 54.39, 326.2, 11.60, 54.4, 55.24, 0.0, 0.0, 69.9, 71.8, 328, 328, 0.8, 0.7, 69.90, 63.12000, 35.8549, 33.1865, 1552.770, 30.55, 36.1757, 99.60, 330.6, 12.62, 1.13, 150.5, 150.0, 150.5, 5.278, 5.362, 5.2776, 6C
2010/08/17, 00:22:21, 59.97, 0.00, 27.8, 27.60, 27.80, 1014.0, 1014.0, 1014.02, 24.76400, -83.66272, 65.4591, 34.8354, 0.00, 54.39, 326.3, 11.60, 54.4, 55.24, 0.0, 0.0, 70.0, 71.8, 340, 335, 0.6, 0.7, 70.00, 63.10000, 35.8542, 33.1697, 1552.738, 30.55, 36.1794, 96.88, 330.6, 12.46, 1.13, 148.6, 149.5, 148.6, 5.396, 5.324, 5.3963, 6C
2010/08/17, 00:23:21, 59.64, 0.00, 27.9, 27.60, 27.90, 1014.1, 1014.1, 1014.12, 24.76677, -83.66467, 65.4596, 34.8340, 0.00, 54.39, 326.3, 11.70, 54.4, 55.24, 0.0, 0.0, 70.6, 73.4, 9, 353, 0.9, 1.1, 70.60, 63.08000, 35.8545, 33.1513, 1552.704, 30.54, 36.1807, 97.52, 329.7, 12.56, 1.06, 143.9, 146.9, 143.9, 5.144, 4.921, 5.1444, 6C
2010/08/17, 00:24:21, 58.81, 0.00, 27.9, 27.60, 27.90, 1014.1, 1014.1, 1014.12, 24.76948, -83.66662, 65.4544, 34.8328, 0.00, 54.39, 326.7, 11.80, 54.4, 55.24, 0.0, 0.0, 70.2, 72.0, 8, 358, 0.6, 0.6, 70.20, 63.06000, 35.8541, 33.1336, 1552.671, 30.53, 36.1783, 96.32, 330.1, 12.61, 1.20, 145.1, 146.2, 145.1, 5.432, 5.419, 5.4324, 6C
2010/08/17, 00:25:21, 60.11, 0.00, 27.9, 27.70, 27.90, 1014.1, 1014.2, 1014.12, 24.77222, -83.66865, 65.4577, 34.8325, 0.00, 54.39, 326.8, 11.70, 54.4, 55.24, 0.0, 0.0, 70.2, 72.0, 35, 32, 1.1, 1.0, 70.20, 63.04000, 35.8530, 33.1178, 1552.640, 30.52, 36.1805, 95.36, 330.5, 12.63, 1.29, 139.6, 140.8, 139.6, 5.252, 5.286, 5.2516, 6C
2010/08/17, 00:26:21, 61.34, 0.00, 27.9, 27.70, 27.90, 1014.2, 1014.2, 1014.22, 24.77498, -83.67060, 65.4585, 34.8325, 0.00, 54.39, 327.1, 11.80, 54.4, 55.24, 0.0, 0.0, 70.4, 71.5, 21, 11, 1.0, 0.9, 70.40, 63.02000, 35.8521, 33.1004, 1552.607, 30.52, 36.1810, 96.56, 330.6, 12.70, 1.25, 142.0, 144.1, 142.0, 5.176, 5.204, 5.1763, 6C
2010/08/17, 00:27:20, 60.31, 0.00, 27.9, 27.70, 27.90, 1014.2, 1014.2, 1014.22, 24.77753, -83.67243, 65.4527, 34.8323, 0.00, 54.39, 326.2, 11.70, 54.4, 55.24, 0.0, 0.0, 71.8, 73.6, 30, 41, 1.0, 1.0, 71.80, 63.00000, 35.8523, 33.0825, 1552.573, 30.51, 36.1775, 96.88, 330.0, 12.74, 1.42, 141.0, 139.5, 141.0, 5.209, 5.345, 5.2089, 6C
2010/08/17, 00:28:21, 60.33, 0.00, 27.9, 27.70, 27.90, 1014.2, 1014.2, 1014.22, 24.78047, -83.67453, 65.4560, 34.8316, 0.00, 54.39, 327.1, 11.70, 54.4, 55.24, 0.0, 0.0, 70.7, 72.7, 12, 3, 0.5, 0.3, 70.70, 62.98000, 35.8507, 33.0671, 1552.543, 30.50, 36.1801, 97.84, 329.8, 12.64, 1.54, 146.1, 147.1, 146.1, 5.589, 5.772, 5.5887, 6C
2010/08/17, 00:29:20, 59.08, 0.00, 27.9, 27.70, 27.90, 1014.2, 1014.2, 1014.22, 24.78302, -83.67637, 65.4509, 34.8329, 0.00, 54.39, 326.4, 11.70, 54.4, 55.24, 0.0, 0.0, 69.5, 71.0, 341, 344, 0.6, 0.6, 69.50, 62.96000, 35.8499, 33.0502, 1552.510, 30.50, 36.1760, 96.32, 329.7, 12.62, 1.61, 149.2, 148.9, 149.2, 5.497, 5.489, 5.4975, 6C
2010/08/17, 00:30:20, 59.55, 0.00, 27.9, 27.70, 27.90, 1014.2, 1014.2, 1014.22, 24.78578, -83.67833, 65.4542, 34.8302, 0.00, 54.39, 327.3, 11.70, 54.4, 55.24, 0.0, 0.0, 69.8, 71.3, 8, 4, 0.6, 0.5, 69.80, 62.94000, 35.8492, 33.0341, 1552.479, 30.50, 36.1800, 98.40, 330.2, 12.54, 1.69, 145.2, 145.8, 145.2, 5.484, 5.575, 5.4840, 6C
2010/08/17, 00:31:20, 61.11, 0.00, 28.0, 27.80, 28.00, 1014.2, 1014.2, 1014.22, 24.78852, -83.68028, 65.4546, 34.8322, 0.00, 54.39, 326.9, 11.80, 54.4, 55.24, 0.0, 0.0, 69.3, 71.1, 65, 205, 0.1, 0.2, 69.30, 62.92000, 35.8491, 33.0160, 1552.445, 30.51, 36.1788, 97.52, 330.1, 12.67, 1.61, 146.7, 148.4, 146.7, 5.981, 6.197, 5.9811, 6C
2010/08/17, 00:32:20, 61.03, 0.00, 28.0, 27.80, 28.00, 1014.2, 1014.2, 1014.22, 24.79127, -83.68223, 65.4491, 34.8308, 0.00, 54.39, 328.0, 11.80, 54.4, 55.24, 0.0, 0.0, 70.6, 71.8, 323, 331, 0.9, 0.5, 70.60, 62.90000, 35.8481, 33.0007, 1552.415, 30.52, 36.1763, 94.72, 330.1, 12.71, 1.58, 152.6, 149.4, 152.6, 5.298, 5.574, 5.2978, 6C
2010/08/17, 00:33:20, 58.82, 0.00, 28.0, 27.80, 28.00, 1014.2, 1014.3, 1014.22, 24.79400, -83.68418, 65.4518, 34.8300, 0.00, 54.39, 327.3, 11.70, 54.4, 55.24, 0.0, 0.0, 71.3, 73.0, 333, 337, 0.8, 0.9, 71.30, 62.88000, 35.8471, 32.9835, 1552.382, 30.54, 36.1786, 99.60, 329.8, 12.62, 1.69, 150.3, 150.2, 150.3, 5.294, 5.179, 5.2943, 6C
2010/08/17, 00:34:21, 58.91, 0.00, 28.0, 27.80, 28.00, 1014.2, 1014.3, 1014.22, 24.79690, -83.68627, 65.4491, 34.8291, 0.00, 54.39, 327.3, 11.70, 54.4, 55.24, 0.0, 0.0, 70.5, 72.4, 341, 334, 0.6, 0.7, 70.50, 62.87000, 35.8469, 32.9672, 1552.351, 30.57, 36.1775, 98.72, 329.9, 12.65, 1.78, 148.7, 149.8, 148.7, 5.445, 5.383, 5.4454, 6C
2010/08/17, 00:35:20, 60.36, 0.00, 28.0, 27.80, 28.00, 1014.2, 1014.3, 1014.22, 24.79943, -83.68810, 65.4526, 34.8293, 0.00, 54.39, 326.3, 11.60, 54.4, 55.24, 0.0, 0.0, 69.6, 71.1, 339, 328, 0.6, 0.5, 69.60, 62.85000, 35.8468, 32.9493, 1552.317, 30.60, 36.1796, 95.68, 330.7, 12.67, 1.98, 149.0, 149.5, 149.0, 5.452, 5.588, 5.4522, 6C
2010/08/17, 00:36:21, 63.85, 0.00, 28.0, 27.80, 28.00, 1014.2, 1014.3, 1014.22, 24.80233, -83.69017, 65.4533, 34.8274, 0.00, 54.39, 326.6, 11.60, 54.4, 55.24, 0.0, 0.0, 70.3, 71.8, 348, 329, 0.9, 0.8, 70.30, 62.83000, 35.8453, 32.9339, 1552.287, 30.64, 36.1814, 98.40, 330.0, 12.56, 2.13, 148.3, 150.8, 148.3, 5.131, 5.324, 5.1312, 6C
2010/08/17, 00:37:21, 64.82, 0.00, 28.1, 27.90, 28.10, 1014.2, 1014.3, 1014.22, 24.80503, -83.69213, 65.4483, 34.8271, 0.00, 54.39, 326.3, 11.50, 54.4, 55.24, 0.0, 0.0, 73.6, 75.9, 287, 290, 1.0, 1.0, 73.60, 62.81000, 35.8441, 32.9182, 1552.256, 30.67, 36.1784, 96.32, 328.9, 12.45, 2.19, 156.0, 155.8, 156.0, 5.691, 5.640, 5.6915, 6C
2010/08/17, 00:38:21, 66.54, 0.00, 28.1, 27.90, 28.10, 1014.2, 1014.3, 1014.22, 24.80773, -83.69405, 65.4508, 34.8268, 0.00, 54.39, 326.8, 11.60, 54.4, 55.24, 0.0, 0.0, 71.3, 74.0, 300, 299, 1.3, 1.2, 71.30, 62.79000, 35.8436, 32.9015, 1552.224, 30.71, 36.1802, 96.88, 329.6, 12.51, 2.42, 158.1, 157.2, 158.1, 5.359, 5.416, 5.3587, 6C
2010/08/17, 00:39:20, 66.56, 0.00, 28.1, 27.90, 28.10, 1014.2, 1014.2, 1014.22, 24.81025, -83.69588, 65.4510, 34.8273, 0.00, 54.39, 326.5, 11.60, 54.4, 55.24, 0.0, 0.0, 71.5, 72.9, 271, 270, 1.0, 1.0, 71.50, 62.77000, 35.8428, 32.8854, 1552.193, 30.76, 36.1800, 96.88, 329.7, 12.66, 2.58, 156.0, 156.0, 156.0, 5.934, 5.952, 5.9343, 6C
2010/08/17, 00:40:21, 68.13, 0.00, 28.1, 27.90, 28.10, 1014.2, 1014.3, 1014.22, 24.81313, -83.69793, 65.4460, 34.8277, 0.00, 54.39, 326.1, 11.70, 54.4, 55.24, 0.0, 0.0, 69.8, 71.8, 284, 284, 0.5, 0.5, 69.80, 62.75000, 35.8425, 32.8687, 1552.161, 30.81, 36.1766, 95.68, 329.5, 12.65, 2.60, 151.6, 151.6, 151.6, 5.840, 5.840, 5.8401, 6C
2010/08/17, 00:41:21, 69.26, 0.00, 28.1, 27.90, 28.10, 1014.2, 1014.2, 1014.22, 24.81568, -83.70013, 65.4483, 34.8269, 0.00, 54.39, 319.8, 11.60, 54.4, 55.24, 0.0, 0.0, 71.1, 72.3, 283, 284, 1.8, 1.8, 71.10, 62.73000, 35.8409, 32.8536, 1552.131, 30.88, 36.1786, 96.56, 324.9, 12.72, 2.67, 158.0, 158.0, 158.0, 5.698, 5.666, 5.6976, 6C
2010/08/17, 00:42:20, 74.36, 0.00, 28.2, 28.00, 28.20, 1014.2, 1014.2, 1014.22, 24.81802, -83.70223, 65.4495, 34.8264, 0.00, 54.39, 320.7, 11.40, 54.4, 55.24, 0.0, 0.0, 72.0, 74.2, 265, 262, 1.8, 1.5, 72.00, 62.71000, 35.8412, 32.8363, 1552.099, 30.91, 36.1797, 96.88, 324.6, 12.38, 2.71, 157.9, 155.0, 157.9, 6.193, 6.186, 6.1929, 6C
2010/08/17, 00:43:20, 74.31, 0.00, 28.2, 28.00, 28.20, 1014.2, 1014.2, 1014.22, 24.82047, -83.70438, 65.4482, 34.8262, 0.00, 54.39, 321.3, 11.20, 54.4, 55.24, 0.0, 0.0, 74.0, 75.8, 250, 252, 1.7, 1.6, 74.00, 62.69000, 35.8398, 32.8210, 1552.068, 30.91, 36.1790, 96.88, 325.2, 12.09, 2.90, 155.0, 154.5, 155.0, 6.421, 6.322, 6.4206, 6C
2010/08/17, 00:44:21, 74.67, 0.00, 28.3, 28.00, 28.30, 1014.2, 1014.2, 1014.22, 24.82305, -83.70670, 65.4497, 34.8247, 0.00, 54.39, 320.2, 11.30, 54.4, 55.24, 0.0, 0.0, 75.9, 77.5, 235, 232, 1.9, 1.6, 75.90, 62.67000, 35.8387, 32.8055, 1552.038, 30.89, 36.1810, 97.52, 325.4, 12.32, 2.87, 154.5, 152.2, 154.5, 6.970, 6.826, 6.9701, 6C
2010/08/17, 00:45:20, 74.22, 0.00, 28.3, 28.10, 28.30, 1014.2, 1014.2, 1014.22, 24.82532, -83.70875, 65.4439, 34.8291, 0.00, 54.39, 320.5, 11.30, 54.4, 55.24, 0.0, 0.0, 75.4, 78.3, 235, 237, 2.1, 2.1, 75.40, 62.66000, 35.8390, 32.7885, 1552.006, 30.89, 36.1743, 96.88, 324.9, 12.28, 2.64, 155.8, 156.2, 155.8, 7.139, 7.087, 7.1387, 6C
2010/08/17, 00:46:20, 73.30, 0.00, 28.2, 28.00, 28.20, 1014.2, 1014.2, 1014.22, 24.82775, -83.71095, 65.4504, 34.8280, 0.00, 54.39, 319.9, 11.30, 54.4, 55.24, 0.0, 0.0, 75.2, 77.1, 237, 237, 1.9, 1.9, 75.20, 62.64000, 35.8373, 32.7733, 1551.976, 30.87, 36.1791, 95.36, 325.0, 12.18, 2.17, 154.3, 154.3, 154.3, 6.931, 6.931, 6.9315, 6C
2010/08/17, 00:47:21, 73.83, 0.00, 28.1, 27.90, 28.10, 1014.2, 1014.2, 1014.22, 24.83038, -83.71328, 65.4462, 34.8279, 0.00, 54.39, 320.6, 11.30, 54.4, 55.24, 0.0, 0.0, 74.8, 76.5, 241, 240, 1.6, 1.4, 74.80, 62.62000, 35.8361, 32.7574, 1551.944, 30.86, 36.1766, 93.52, 325.5, 12.27, 1.90, 153.6, 152.1, 153.6, 6.689, 6.590, 6.6886, 6C
2010/08/17, 00:48:21, 72.88, 0.00, 28.0, 27.90, 28.00, 1014.1, 1014.2, 1014.12, 24.83282, -83.71547, 65.4486, 34.8275, 0.00, 54.39, 320.4, 11.20, 54.4, 55.24, 0.0, 0.0, 76.0, 77.8, 233, 236, 1.2, 1.2, 76.00, 62.60000, 35.8363, 32.7404, 1551.912, 30.85, 36.1783, 97.84, 324.3, 12.16, 1.78, 149.7, 150.0, 149.7, 6.484, 6.436, 6.4844, 6C
2010/08/17, 00:49:21, 73.35, 0.00, 28.0, 27.80, 28.00, 1014.2, 1014.2, 1014.22, 24.83525, -83.71768, 65.4502, 34.8276, 0.00, 54.39, 320.0, 11.20, 54.4, 55.24, 0.0, 0.0, 77.7, 78.9, 279, 264, 1.1, 0.8, 77.70, 62.58000, 35.8361, 32.7251, 1551.883, 30.84, 36.1793, 96.32, 324.8, 12.10, 1.77, 151.0, 147.9, 151.0, 5.602, 5.834, 5.6022, 6C
2010/08/17, 00:50:20, 73.75, 0.00, 28.0, 27.80, 28.00, 1014.2, 1014.2, 1014.22, 24.83750, -83.71967, 65.4459, 34.8270, 0.00, 54.39, 320.4, 11.20, 54.4, 55.24, 0.0, 0.0, 75.4, 78.1, 272, 270, 2.1, 1.3, 75.40, 62.56000, 35.8345, 32.7099, 1551.853, 30.83, 36.1770, 97.84, 324.4, 12.28, 1.78, 161.1, 153.3, 161.1, 5.901, 5.804, 5.9014, 6C
2010/08/17, 00:51:20, 73.51, 0.00, 28.0, 27.80, 28.00, 1014.1, 1014.2, 1014.12, 24.83993, -83.72187, 65.4479, 34.8275, 0.00, 54.39, 320.4, 11.20, 54.4, 55.24, 0.0, 0.0, 74.6, 76.9, 280, 284, 1.4, 1.1, 74.60, 62.54000, 35.8337, 32.6947, 1551.823, 30.84, 36.1779, 97.84, 324.8, 12.09, 1.90, 155.0, 151.8, 155.0, 5.578, 5.512, 5.5784, 6C
2010/08/17, 00:52:21, 73.79, 0.00, 28.0, 27.80, 28.00, 1014.2, 1014.2, 1014.22, 24.84255, -83.72422, 65.4455, 34.8256, 0.00, 54.39, 320.5, 11.30, 54.4, 55.24, 0.0, 0.0, 74.6, 76.1, 280, 281, 1.5, 1.1, 74.60, 62.53000, 35.8329, 32.6787, 1551.792, 30.85, 36.1777, 98.08, 324.8, 12.20, 1.87, 156.0, 151.9, 156.0, 5.620, 5.614, 5.6204, 6C
2010/08/17, 00:53:21, 74.27, 0.00, 28.0, 27.80, 28.00, 1014.2, 1014.2, 1014.22, 24.84497, -83.72640, 65.4469, 34.8282, 0.00, 54.39, 320.8, 11.10, 54.4, 55.24, 0.0, 0.0, 73.3, 75.3, 279, 285, 0.5, 0.6, 73.30, 62.51000, 35.8336, 32.6624, 1551.762, 30.87, 36.1768, 99.04, 324.9, 11.94, 1.87, 145.3, 146.2, 145.3, 5.667, 5.591, 5.6668, 6C
2010/08/17, 00:54:20, 74.75, 0.00, 28.0, 27.80, 28.00, 1014.2, 1014.2, 1014.22, 24.84723, -83.72840, 65.4499, 34.8271, 0.00, 54.39, 321.3, 11.10, 54.4, 55.24, 0.0, 0.0, 75.3, 76.5, 324, 321, 0.4, 0.4, 75.30, 62.49000, 35.8322, 32.6473, 1551.732, 30.88, 36.1794, 99.60, 325.5, 12.03, 1.78, 142.8, 143.0, 142.8, 5.426, 5.438, 5.4259, 6C
2010/08/17, 00:55:21, 74.56, 0.00, 28.0, 27.80, 28.00, 1014.2, 1014.3, 1014.22, 24.84982, -83.73068, 65.4452, 34.8259, 0.00, 54.39, 319.7, 11.20, 54.4, 55.24, 0.0, 0.0, 76.2, 78.8, 286, 289, 1.1, 1.0, 76.20, 62.47000, 35.8321, 32.6317, 1551.702, 30.95, 36.1773, 98.40, 325.1, 12.16, 1.73, 151.3, 150.1, 151.3, 5.489, 5.454, 5.4895, 6C
2010/08/17, 00:56:21, 74.25, 0.00, 28.1, 27.80, 28.10, 1014.2, 1014.3, 1014.22, 24.85225, -83.73282, 65.4482, 34.8278, 0.00, 54.39, 321.4, 11.20, 54.4, 55.24, 0.0, 0.0, 76.3, 78.1, 285, 289, 2.0, 1.6, 76.30, 62.46000, 35.8321, 32.6164, 1551.673, 31.04, 36.1779, 95.04, 324.8, 12.16, 1.78, 161.1, 156.8, 161.1, 5.460, 5.352, 5.4597, 6C
2010/08/17, 00:57:21, 73.64, 0.00, 28.1, 27.90, 28.10, 1014.3, 1014.3, 1014.32, 24.85467, -83.73497, 65.4501, 34.8261, 0.00, 54.39, 320.6, 11.10, 54.4, 55.24, 0.0, 0.0, 75.4, 77.5, 277, 282, 1.5, 1.4, 75.40, 62.44000, 35.8316, 32.6010, 1551.643, 31.13, 36.1803, 96.00, 324.7, 12.15, 1.87, 156.0, 154.9, 156.0, 5.654, 5.527, 5.6544, 6C
2010/08/17, 00:58:21, 75.41, 0.00, 28.1, 27.90, 28.10, 1014.3, 1014.4, 1014.32, 24.85705, -83.73712, 65.4454, 34.8279, 0.00, 54.39, 320.3, 11.10, 54.4, 55.24, 0.0, 0.0, 74.1, 76.2, 294, 296, 1.2, 1.2, 74.10, 62.42000, 35.8305, 32.5871, 1551.615, 31.20, 36.1761, 97.52, 325.3, 12.14, 1.94, 152.0, 151.9, 152.0, 5.247, 5.207, 5.2469, 6C
2010/08/17, 00:59:21, 75.22, 0.00, 28.1, 27.90, 28.10, 1014.4, 1014.4, 1014.42, 24.85943, -83.73928, 65.4501, 34.8290, 0.00, 54.39, 320.6, 11.10, 54.4, 55.24, 0.0, 0.0, 73.8, 75.6, 293, 273, 0.5, 0.5, 73.80, 62.40000, 35.8300, 32.5721, 1551.586, 31.21, 36.1782, 95.04, 325.2, 12.03, 1.98, 145.4, 145.8, 145.4, 5.552, 5.721, 5.5519, 6C
2010/08/17, 01:00:21, 74.69, 0.00, 28.1, 27.90, 28.10, 1014.4, 1014.4, 1014.42, 24.86183, -83.74143, 65.4470, 34.8272, 0.00, 54.39, 321.2, 11.00, 54.4, 55.24, 0.0, 0.0, 75.7, 76.8, 315, 318, 0.9, 0.9, 75.70, 62.39000, 35.8294, 32.5573, 1551.557, 31.17, 36.1776, 93.52, 324.8, 12.01, 1.90, 148.2, 147.8, 148.2, 5.017, 4.983, 5.0169, 6C
2010/08/17, 01:01:20, 74.21, 0.00, 28.1, 27.90, 28.10, 1014.4, 1014.4, 1014.42, 24.86405, -83.74343, 65.4495, 34.8276, 0.00, 54.39, 320.8, 11.00, 54.4, 55.24, 0.0, 0.0, 74.3, 76.3, 304, 303, 1.0, 1.0, 74.30, 62.37000, 35.8302, 32.5413, 1551.527, 31.17, 36.1788, 95.68, 325.6, 12.15, 1.87, 149.1, 149.2, 149.1, 5.101, 5.117, 5.1014, 6C
2010/08/17, 01:02:21, 73.86, 0.00, 28.1, 27.90, 28.10, 1014.4, 1014.5, 1014.42, 24.86658, -83.74568, 65.4522, 34.8278, 0.00, 54.39, 319.4, 11.00, 54.4, 55.24, 0.0, 0.0, 73.3, 75.3, 321, 322, 0.7, 0.6, 73.30, 62.35000, 35.8294, 32.5273, 1551.500, 31.18, 36.1804, 97.52, 324.1, 11.92, 1.78, 146.6, 145.8, 146.6, 5.053, 5.124, 5.0531, 6C
2010/08/17, 01:03:20, 74.10, 0.00, 28.1, 27.90, 28.10, 1014.4, 1014.5, 1014.42, 24.86882, -83.74768, 65.4469, 34.8285, 0.00, 54.39, 320.3, 11.00, 54.4, 55.24, 0.0, 0.0, 73.9, 75.4, 320, 310, 0.5, 0.4, 73.90, 62.34000, 35.8289, 32.5127, 1551.471, 31.21, 36.1766, 96.00, 325.4, 12.02, 1.87, 144.0, 143.8, 144.0, 5.314, 5.440, 5.3140, 6C
2010/08/17, 01:04:21, 73.93, 0.00, 28.2, 28.00, 28.20, 1014.4, 1014.5, 1014.42, 24.87137, -83.74990, 65.4524, 34.8292, 0.00, 54.39, 321.1, 10.90, 54.4, 55.24, 0.0, 0.0, 73.9, 75.7, 357, 358, 0.6, 0.9, 73.90, 62.32000, 35.8283, 32.4987, 1551.444, 31.24, 36.1795, 97.84, 325.5, 11.88, 1.94, 141.1, 140.9, 141.1, 4.956, 4.657, 4.9561, 6C
2010/08/17, 01:05:20, 75.26, 0.00, 28.2, 28.00, 28.20, 1014.5, 1014.5, 1014.52, 24.87358, -83.75182, 65.4495, 34.8279, 0.00, 54.39, 321.6, 10.90, 54.4, 55.24, 0.0, 0.0, 73.6, 74.5, 339, 336, 0.9, 1.0, 73.60, 62.30000, 35.8279, 32.4852, 1551.418, 31.29, 36.1786, 98.72, 324.5, 12.09, 1.98, 143.9, 145.0, 143.9, 4.651, 4.577, 4.6508, 6C
2010/08/17, 01:06:20, 74.30, 0.00, 28.3, 28.00, 28.30, 1014.5, 1014.6, 1014.52, 24.87592, -83.75390, 65.4518, 34.8301, 0.00, 54.39, 321.9, 10.90, 54.4, 55.24, 0.0, 0.0, 73.9, 76.1, 319, 323, 2.3, 1.8, 73.90, 62.29000, 35.8280, 32.4703, 1551.390, 31.32, 36.1785, 95.68, 327.1, 12.05, 2.02, 161.3, 154.6, 161.3, 4.003, 4.204, 4.0032, 6C
2010/08/17, 01:07:20, 74.49, 0.00, 28.3, 28.10, 28.30, 1014.5, 1014.6, 1014.52, 24.87837, -83.75588, 65.4544, 34.8306, 0.00, 54.39, 323.4, 10.70, 54.4, 55.24, 0.0, 0.0, 74.1, 76.3, 315, 315, 1.7, 1.5, 74.10, 62.27000, 35.8282, 32.4562, 1551.363, 31.32, 36.1798, 95.04, 327.7, 11.87, 2.13, 157.3, 155.2, 157.3, 4.468, 4.584, 4.4684, 6C
2010/08/17, 01:08:21, 73.67, 0.00, 28.3, 28.10, 28.30, 1014.5, 1014.5, 1014.52, 24.88093, -83.75800, 65.4509, 34.8305, 0.00, 54.39, 323.9, 10.80, 54.4, 55.24, 0.0, 0.0, 73.8, 75.6, 321, 321, 1.6, 1.4, 73.80, 62.26000, 35.8284, 32.4418, 1551.336, 31.30, 36.1777, 96.88, 327.2, 11.96, 2.23, 154.7, 152.9, 154.7, 4.337, 4.476, 4.3373, 6C
2010/08/17, 01:09:20, 74.30, 0.00, 28.3, 28.10, 28.30, 1014.5, 1014.5, 1014.52, 24.88318, -83.75983, 65.4553, 34.8323, 0.00, 54.39, 322.7, 10.80, 54.4, 55.24, 0.0, 0.0, 73.5, 75.0, 312, 317, 0.9, 0.6, 73.50, 62.24000, 35.8267, 32.4291, 1551.310, 31.28, 36.1792, 97.20, 327.1, 11.92, 2.31, 150.1, 147.0, 150.1, 4.903, 5.056, 4.9034, 6C